HULIANWANG DIGUI-108

Last updated on Mon Dec 15 2025 00:02:13 GMT+0000 (Coordinated Universal Time)

1 66918U 25285D 25348.33584918 .00000090 00000+0 14847-3 0 9990 2 66918 50.0089 110.7358 0006314 283.2589 76.7612 14.05417522 1135
UTC large
Height (km)
Speed (km/s)
/
Latitude / Longitude
Inclination (degrees)
Orbital Period (minutes)
Azimuth
Elevation
Range (km)
Doppler Factor

Next 0 passes for location: London (51.5072 / 0.1276)

Sorry there are no passes over London.